1496077201.08,47968,24.56,74230.0,9.17,-25.61,-25.75,0,*73
1496077202.33,47969,24.56,74228.3,9.15,-25.65,-25.81,0,*7F
1496077203.58,47970,24.56,74226.8,9.15,-25.65,-25.81,0,*77
1496077204.83,47971,24.56,74228.3,9.15,-25.29,-25.61,0,*70
1496077206.05,47972,24.56,74228.5,9.15,-25.65,-25.91,0,*74
1496077207.32,47973,24.56,74230.0,9.15,-25.75,-25.81,0,*75
1496077208.58,47974,24.56,74224.8,9.13,-25.81,-25.97,0,*78
1496077209.81,47975,24.56,74224.8,9.13,-25.71,-25.87,0,*77
1496077211.06,47976,24.56,74228.5,9.11,-25.75,-25.87,0,*72
1496077212.31,47977,24.56,74228.8,9.11,-25.75,-25.91,0,*74
1496077213.55,47978,24.56,74230.0,9.13,-25.71,-26.03,0,*75
1496077214.78,47979,24.56,74230.3,9.11,-25.87,-26.03,0,*7F
1496077216.04,47980,24.56,74228.3,9.11,-25.75,-25.91,0,*7C
1496077217.3,47981,24.56,74230.0,9.11,-25.75,-26.03,0,*75
1496077218.55,47982,24.56,74228.8,9.11,-25.39,-25.55,0,*7E
1496077219.78,47983,24.56,74224.3,9.13,-24.97,-25.03,0,*7B
1496077221.03,47984,24.56,74230.0,9.11,-25.09,-25.29,0,*70
1496077222.23,47985,24.56,74230.8,9.13,-25.19,-25.39,0,*73
1496077223.46,47986,24.56,74228.8,9.11,-25.23,-25.39,0,*7B
1496077224.71,47987,24.56,74230.5,9.11,-25.23,-25.45,0,*71
1496077225.96,47988,24.56,74228.3,9.09,-25.45,-25.75,0,*74
1496077227.21,47989,24.56,74230.8,9.11,-25.75,-25.87,0,*72
1496077228.44,47990,24.56,74230.0,9.11,-25.23,-25.39,0,*7C
1496077229.69,47991,24.56,74228.3,9.13,-24.83,-24.87,0,*70
1496077230.91,47992,24.56,74228.5,9.11,-24.93,-25.23,0,*7F
1496077232.16,47993,24.56,74230.3,9.11,-25.03,-25.23,0,*76
1496077233.39,47994,24.56,74228.5,9.13,-24.87,-25.19,0,*77
1496077234.59,47995,24.56,74228.5,9.13,-24.97,-25.35,0,*79
1496077235.84,47996,24.56,74230.0,9.11,-25.03,-25.23,0,*73
1496077237.1,47997,24.56,74230.8,9.11,-25.29,-25.61,0,*7C
1496077238.39,47998,24.56,74230.8,9.11,-25.71,-25.71,0,*7F
1496077239.64,47999,24.56,74228.8,9.11,-25.61,-25.71,0,*7F
1496077240.93,48000,24.56,74228.0,9.11,-25.55,-25.75,0,*7A
1496077242.18,48001,24.56,74230.8,9.05,-25.65,-25.75,0,*7D
1496077243.44,48002,24.56,74230.3,9.09,-25.55,-25.75,0,*71
1496077244.69,48003,24.56,74228.0,9.05,-25.49,-25.75,0,*71
1496077245.96,48004,24.56,74230.5,9.09,-25.55,-25.75,0,*77
1496077247.18,48005,24.56,74230.3,9.05,-25.19,-25.61,0,*77
1496077248.42,48006,24.56,74230.0,9.05,-25.29,-25.61,0,*77
1496077249.67,48007,24.56,74230.8,9.05,-25.61,-25.75,0,*7F
1496077250.91,48008,24.56,74228.3,9.05,-25.65,-25.81,0,*7F
1496077252.15,48009,24.56,74228.5,9.09,-25.39,-25.55,0,*72
1496077253.35,48010,24.56,74228.0,9.09,-25.23,-25.39,0,*7B
1496077254.59,48011,24.56,74230.8,9.05,-25.45,-25.65,0,*7F
1496077255.85,48012,24.56,74228.0,9.09,-25.55,-25.55,0,*72
1496077257.07,48013,24.56,74230.8,9.05,-25.35,-25.65,0,*7A
1496077258.29,48014,24.56,74228.5,9.05,-25.65,-25.91,0,*73
1496077259.53,48015,24.56,74230.0,9.05,-26.13,-26.45,0,*7A
1496077260.78,48016,24.56,74230.3,9.05,-26.07,-26.33,0,*7D
1496077262.03,48017,24.56,74230.3,9.03,-25.71,-25.97,0,*75
1496077263.25,48018,24.56,74234.3,9.03,-25.35,-25.55,0,*74
1496077264.5,48019,24.56,74232.8,9.01,-25.03,-25.19,0,*7A
1496077265.72,48020,24.56,74232.8,9.03,-25.03,-25.13,0,*78
1496077266.97,48021,24.56,74228.0,9.01,-25.49,-25.81,0,*7E
1496077268.25,48022,24.56,74228.5,9.01,-25.81,-25.97,0,*7E
1496077269.5,48023,24.56,74226.8,9.01,-25.65,-25.81,0,*72
1496077270.78,48024,24.56,74230.5,9.01,-25.55,-25.81,0,*76
1496077272.04,48025,24.56,74226.8,9.01,-25.49,-25.71,0,*75
1496077273.27,48026,24.56,74228.0,9.01,-25.39,-25.65,0,*74
1496077274.49,48027,24.56,74230.0,9.01,-25.19,-25.49,0,*79
1496077275.77,48028,24.56,74226.8,9.01,-25.81,-25.97,0,*74
1496077277.02,48029,24.56,74226.0,9.01,-25.55,-25.87,0,*7D
1496077278.27,48030,24.56,74226.0,9.01,-25.55,-25.87,0,*75
1496077279.51,48031,24.56,74228.0,9.01,-25.87,-26.03,0,*74
1496077280.76,48032,24.56,74228.8,9.01,-25.87,-26.13,0,*76
1496077281.95,48033,24.56,74226.8,8.99,-25.61,-25.87,0,*71
1496077283.18,48034,24.56,74226.3,8.97,-25.87,-26.07,0,*7B
1496077284.43,48035,24.56,74228.0,8.97,-25.61,-25.75,0,*74
1496077285.65,48036,24.56,74224.8,8.97,-25.39,-25.61,0,*7F
1496077286.88,48037,24.56,74224.8,8.97,-25.39,-25.61,0,*7E
1496077288.16,48038,24.56,74224.5,8.97,-25.55,-25.75,0,*7E
1496077289.39,48039,24.56,74226.3,8.95,-25.49,-25.75,0,*70
1496077290.66,48040,24.56,74224.3,8.97,-25.45,-25.75,0,*70
1496077291.93,48041,24.56,74226.3,8.97,-25.29,-25.45,0,*78
1496077293.18,48042,24.56,74226.0,8.99,-25.55,-25.75,0,*7D
1496077294.44,48043,24.56,74224.8,8.99,-25.55,-25.75,0,*7C
1496077295.69,48044,24.56,74226.8,8.97,-25.39,-25.71,0,*7B
1496077296.97,48045,24.56,74226.5,8.97,-25.55,-25.75,0,*74
1496077298.22,48046,24.56,74224.5,8.97,-25.55,-25.87,0,*7A
1496077299.44,48047,24.56,74226.3,8.95,-25.61,-25.81,0,*78
1496077300.67,48048,24.56,74224.5,8.97,-25.87,-26.03,0,*74
1496077301.89,48049,24.56,74230.3,8.95,-25.49,-25.81,0,*7C
1496077303.11,48050,24.56,74226.0,8.97,-25.91,-26.07,0,*7E
1496077304.33,48051,24.56,74230.3,8.95,-25.75,-25.91,0,*7B
1496077305.56,48052,24.56,74226.0,8.95,-25.49,-25.75,0,*7D
1496077306.81,48053,24.56,74228.8,8.93,-25.55,-25.87,0,*7A
1496077308.06,48054,24.56,74230.0,8.93,-25.55,-25.87,0,*7D
1496077309.25,48055,24.56,74230.3,8.95,-25.65,-25.91,0,*7E
1496077310.51,48056,24.56,74230.3,8.93,-26.13,-26.39,0,*78
1496077311.76,48057,24.56,74228.3,8.93,-25.71,-25.87,0,*78
1496077313.01,48058,24.56,74228.0,8.93,-25.71,-25.87,0,*77
1496077314.28,48059,24.56,74228.8,8.93,-25.81,-25.97,0,*78
1496077315.56,48060,24.56,74228.8,8.93,-25.71,-25.97,0,*7D
1496077316.81,48061,24.56,74228.5,8.91,-25.97,-26.17,0,*7D
1496077318.06,48062,24.56,74228.8,8.91,-25.97,-26.17,0,*7E
1496077319.29,48063,24.56,74228.5,8.91,-25.65,-25.97,0,*79
1496077320.5,48064,24.56,74226.8,8.91,-26.03,-26.03,0,*73
1496077321.72,48065,24.56,74228.0,8.89,-25.91,-26.03,0,*73
1496077322.95,48066,24.56,74228.0,8.91,-25.55,-25.87,0,*7E
1496077324.22,48067,24.56,74230.0,8.89,-25.45,-25.71,0,*7E
1496077325.47,48068,24.56,74228.5,8.89,-25.23,-25.55,0,*77
1496077326.69,48069,24.56,74228.5,8.89,-25.19,-25.23,0,*7E
1496077327.94,48070,24.56,74228.3,8.91,-25.29,-25.55,0,*7D
1496077329.19,48071,24.56,74230.8,8.89,-25.35,-25.55,0,*78
1496077330.42,48072,24.56,74230.3,8.91,-25.49,-25.71,0,*7F
1496077331.7,48073,24.63,74228.8,8.89,-25.55,-25.71,0,*7A
1496077332.95,48074,24.56,74224.5,8.91,-25.55,-25.81,0,*7B
1496077334.18,48075,24.56,74228.5,8.91,-25.71,-25.87,0,*7A
1496077335.43,48076,24.56,74228.0,8.89,-25.61,-25.75,0,*7C
1496077336.68,48077,24.56,74230.0,8.91,-25.29,-25.29,0,*71
1496077337.9,48078,24.56,74228.0,8.89,-25.23,-25.39,0,*7C
1496077339.12,48079,24.56,74226.8,8.89,-25.35,-25.61,0,*77
1496077340.35,48080,24.63,74230.0,8.91,-25.49,-25.71,0,*72
1496077341.58,48081,24.56,74226.5,8.89,-25.39,-25.61,0,*7C
1496077342.85,48082,24.56,74228.0,8.89,-25.45,-25.71,0,*75
1496077344.05,48083,24.56,74226.0,8.91,-25.23,-25.39,0,*71
1496077345.32,48084,24.56,74228.3,8.89,-25.45,-25.71,0,*73
1496077346.54,48085,24.56,74228.0,8.89,-25.87,-25.91,0,*72
1496077347.79,48086,24.56,74224.3,8.89,-25.71,-25.91,0,*78
1496077349.04,48087,24.56,74228.0,8.89,-25.61,-25.75,0,*72
1496077350.3,48088,24.56,74226.0,8.89,-25.39,-25.55,0,*72
1496077351.55,48089,24.56,74224.8,8.89,-25.71,-25.87,0,*70
1496077352.8,48090,24.56,74228.5,8.89,-25.39,-25.71,0,*7D
1496077354.02,48091,24.56,74226.0,8.89,-25.35,-25.35,0,*70
1496077355.21,48092,24.56,74224.0,8.87,-25.35,-25.39,0,*71
1496077356.47,48093,24.56,74226.5,8.87,-25.55,-25.55,0,*7C
1496077357.67,48094,24.56,74224.0,8.87,-25.39,-25.61,0,*76
1496077358.9,48095,24.56,74224.5,8.87,-25.55,-25.61,0,*7D
1496077360.13,48096,24.56,74226.3,8.85,-25.39,-25.61,0,*76
1496077361.32,48097,24.56,74228.0,8.87,-25.23,-25.19,0,*71
1496077362.54,48098,24.56,74224.5,8.89,-25.19,-25.19,0,*79
1496077363.76,48099,24.56,74226.3,8.91,-25.29,-25.35,0,*7C
1496077364.96,48100,24.56,74230.0,8.87,-25.35,-25.61,0,*76
1496077366.18,48101,24.63,74230.5,8.87,-25.71,-25.87,0,*7F
1496077367.43,48102,24.56,74226.8,8.85,-25.75,-25.91,0,*7D
1496077368.69,48103,24.56,74224.8,8.87,-25.55,-25.71,0,*72
1496077369.94,48104,24.56,74224.8,8.85,-25.61,-25.81,0,*7F
1496077371.18,48105,24.56,74226.3,8.87,-25.45,-25.55,0,*73
1496077372.38,48106,24.63,74228.8,8.87,-25.35,-25.39,0,*7D
1496077373.57,48107,24.56,74226.3,8.87,-25.35,-25.39,0,*7C
1496077374.82,48108,24.56,74226.8,8.85,-25.45,-25.65,0,*7F
1496077376.05,48109,24.56,74228.0,8.85,-25.39,-25.39,0,*7C
1496077377.24,48110,24.56,74228.8,8.87,-25.35,-25.39,0,*7A
1496077378.49,48111,24.56,74226.5,8.85,-25.29,-25.39,0,*74
1496077379.68,48112,24.56,74228.5,8.87,-25.19,-25.19,0,*74
1496077380.88,48113,24.56,74222.8,8.87,-25.35,-25.61,0,*74
1496077382.11,48114,24.56,74224.5,8.85,-25.49,-25.61,0,*7A
1496077383.35,48115,24.56,74226.0,8.87,-25.55,-25.61,0,*74
1496077384.6,48116,24.56,74228.3,8.87,-25.55,-25.71,0,*76
1496077385.88,48117,24.63,74228.8,8.85,-25.81,-25.97,0,*74
1496077387.13,48118,24.56,74224.5,8.85,-25.75,-25.91,0,*76
1496077388.41,48119,24.56,74230.3,8.85,-25.75,-25.81,0,*76
1496077389.69,48120,24.56,74228.0,8.81,-25.55,-25.71,0,*75
1496077390.92,48121,24.63,74230.5,8.81,-25.49,-25.65,0,*7C
1496077392.15,48122,24.56,74226.5,8.81,-25.35,-25.49,0,*7A
1496077393.38,48123,24.63,74230.5,8.81,-25.65,-25.87,0,*7C
1496077394.66,48124,24.56,74228.8,8.81,-25.55,-25.71,0,*71
1496077395.89,48125,24.56,74228.8,8.85,-25.39,-25.39,0,*72
1496077397.14,48126,24.56,74230.3,8.81,-25.29,-25.49,0,*73
1496077398.37,48127,24.56,74230.3,8.81,-25.65,-25.87,0,*78
1496077399.64,48128,24.63,74230.5,8.81,-25.81,-25.97,0,*7C
1496077400.89,48129,24.63,74228.8,8.81,-25.29,-25.35,0,*77
1496077402.13,48130,24.56,74226.0,8.81,-25.49,-25.49,0,*72
1496077403.41,48131,24.56,74224.8,8.81,-25.71,-25.81,0,*7C
1496077404.63,48132,24.56,74226.5,8.81,-25.65,-25.87,0,*7C
1496077405.88,48133,24.56,74224.0,8.81,-25.65,-25.81,0,*7B
1496077407.13,48134,24.56,74226.5,8.81,-25.49,-25.81,0,*72
1496077408.38,48135,24.63,74226.8,8.81,-25.35,-25.45,0,*70
1496077409.61,48136,24.63,74228.8,8.81,-25.35,-25.49,0,*7F
1496077410.86,48137,24.63,74228.0,8.81,-25.03,-25.19,0,*7E
1496077412.08,48138,24.63,74228.0,8.81,-25.19,-25.35,0,*74
1496077413.32,48139,24.63,74230.5,8.81,-25.29,-25.35,0,*76
1496077414.54,48140,24.63,74226.8,8.81,-25.19,-25.35,0,*7B
1496077415.82,48141,24.56,74228.0,8.81,-25.29,-25.29,0,*74
1496077417.06,48142,24.56,74226.5,8.79,-25.29,-25.45,0,*7A
1496077418.32,48143,24.56,74226.5,8.81,-25.49,-25.71,0,*7D
1496077419.58,48144,24.63,74228.5,8.81,-25.81,-26.03,0,*78
1496077420.81,48145,24.56,74224.0,8.81,-25.87,-26.03,0,*7F
1496077422.06,48146,24.63,74228.8,8.79,-25.97,-26.13,0,*7B
1496077423.33,48147,24.63,74230.5,8.81,-26.03,-26.33,0,*71
1496077424.58,48148,24.63,74226.5,8.81,-26.17,-26.45,0,*7A
1496077425.86,48149,24.56,74224.5,8.81,-26.17,-26.33,0,*7A
1496077427.11,48150,24.63,74230.8,8.79,-25.97,-26.17,0,*78
1496077428.35,48151,24.56,74226.3,8.79,-25.81,-26.03,0,*7B
1496077429.57,48152,24.63,74230.0,8.77,-25.91,-26.23,0,*75
1496077430.8,48153,24.63,74226.5,8.75,-25.87,-26.03,0,*73
1496077432.05,48154,24.56,74224.5,8.75,-25.75,-26.07,0,*7D
1496077433.3,48155,24.56,74224.0,8.77,-25.75,-25.91,0,*72
1496077434.57,48156,24.56,74226.3,8.77,-25.71,-26.03,0,*7D
1496077435.82,48157,24.56,74226.0,8.77,-25.55,-25.87,0,*75
1496077437.05,48158,24.56,74226.8,8.75,-25.61,-26.03,0,*70
1496077438.3,48159,24.56,74224.0,8.75,-25.39,-25.55,0,*7C
1496077439.52,48160,24.56,74224.0,8.75,-25.35,-25.35,0,*7C
1496077440.74,48161,24.56,74224.5,8.75,-25.19,-25.35,0,*73
1496077441.96,48162,24.63,74230.0,8.75,-25.23,-25.35,0,*79
1496077443.18,48163,24.63,74228.5,8.75,-25.23,-25.39,0,*74
1496077444.41,48164,24.63,74226.3,8.77,-25.19,-25.35,0,*74
1496077445.63,48165,24.63,74228.5,8.77,-25.19,-25.23,0,*72
1496077446.88,48166,24.63,74226.3,8.77,-25.35,-25.55,0,*7E
1496077448.14,48167,24.63,74228.8,8.75,-25.49,-25.71,0,*70
1496077449.37,48168,24.63,74228.3,8.77,-25.23,-25.39,0,*7D
1496077450.63,48169,24.56,74226.5,8.77,-25.39,-25.71,0,*7B
1496077451.85,48170,24.63,74228.0,8.77,-25.61,-25.91,0,*70
1496077453.11,48171,24.63,74226.5,8.77,-25.55,-25.87,0,*71
1496077454.39,48172,24.63,74228.3,8.75,-25.55,-25.75,0,*7D
1496077455.65,48173,24.63,74226.5,8.77,-25.39,-25.55,0,*76
1496077456.91,48174,24.63,74228.0,8.77,-25.39,-25.55,0,*71
1496077458.17,48175,24.63,74226.0,8.77,-25.71,-26.03,0,*7C
1496077459.42,48176,24.63,74230.0,8.75,-25.91,-26.17,0,*76
1496077460.67,48177,24.63,74230.5,8.75,-25.75,-26.03,0,*78
1496077461.9,48178,24.56,74224.5,8.75,-25.61,-25.87,0,*7D
1496077463.15,48179,24.63,74228.3,8.75,-25.49,-25.75,0,*7B
1496077464.37,48180,24.63,74224.0,8.75,-25.61,-25.91,0,*7D
1496077465.63,48181,24.63,74224.8,8.75,-25.49,-25.75,0,*7C
1496077466.86,48182,24.63,74226.8,8.75,-25.39,-25.49,0,*77
1496077468.08,48183,24.56,74222.5,8.75,-25.35,-25.49,0,*7A
1496077469.37,48184,24.63,74226.0,8.75,-25.55,-25.75,0,*74
1496077470.62,48185,24.63,74228.3,8.75,-25.49,-25.75,0,*78
1496077471.88,48186,24.63,74228.0,8.77,-25.71,-26.07,0,*74
1496077473.13,48187,24.63,74226.5,8.75,-25.91,-26.17,0,*78
1496077474.38,48188,24.63,74226.3,8.75,-25.61,-25.75,0,*7F
1496077475.66,48189,24.63,74224.8,8.75,-25.55,-25.75,0,*79
1496077476.94,48190,24.63,74226.5,8.75,-25.55,-25.75,0,*71
1496077478.17,48191,24.63,74226.8,8.73,-25.65,-25.97,0,*79
1496077479.42,48192,24.63,74226.0,8.71,-26.29,-26.39,0,*74
1496077480.62,48193,24.63,74226.5,8.73,-26.39,-26.61,0,*7B
1496077481.88,48194,24.56,74224.5,8.71,-26.33,-26.61,0,*74
1496077483.12,48195,24.63,74226.3,8.71,-26.29,-26.49,0,*74
1496077484.37,48196,24.63,74226.8,8.71,-26.61,-26.81,0,*7F
1496077485.62,48197,24.63,74226.3,8.71,-26.49,-26.81,0,*74
1496077486.88,48198,24.63,74230.3,8.71,-26.33,-26.65,0,*7C
1496077488.1,48199,24.56,74224.5,8.71,-26.61,-26.87,0,*76
1496077489.35,48200,24.63,74226.0,8.67,-26.49,-26.71,0,*71
1496077490.59,48201,24.63,74226.3,8.69,-26.03,-26.17,0,*70
1496077491.85,48202,24.63,74226.5,8.67,-26.17,-26.39,0,*74
1496077493.1,48203,24.63,74230.8,8.67,-26.39,-26.55,0,*73
1496077494.33,48204,24.63,74228.8,8.67,-26.39,-26.65,0,*77
1496077495.58,48205,24.63,74224.3,8.67,-26.39,-26.71,0,*73
1496077496.83,48206,24.63,74230.0,8.67,-26.39,-26.55,0,*76
1496077498.08,48207,24.63,74230.5,8.65,-26.29,-26.55,0,*74
1496077499.28,48208,24.63,74226.8,8.65,-26.45,-26.61,0,*76
1496077500.51,48209,24.63,74224.3,8.63,-26.23,-26.39,0,*7C
1496077501.74,48210,24.63,74226.5,8.65,-26.07,-26.29,0,*75
1496077502.99,48211,24.63,74228.3,8.63,-26.07,-26.29,0,*72
1496077504.21,48212,24.63,74224.3,8.63,-25.91,-26.23,0,*77
1496077505.44,48213,24.63,74226.3,8.65,-25.81,-25.91,0,*7B
1496077506.7,48214,24.63,74226.8,8.63,-25.75,-26.07,0,*7D
1496077507.92,48215,24.63,74226.5,8.65,-25.91,-26.13,0,*75
1496077509.13,48216,24.63,74226.8,8.65,-26.23,-26.39,0,*74
1496077510.36,48217,24.63,74224.0,8.63,-26.07,-26.39,0,*75
1496077511.61,48218,24.63,74226.3,8.63,-26.07,-26.13,0,*72
1496077512.84,48219,24.63,74226.5,8.63,-25.61,-25.91,0,*79
1496077514.09,48220,24.63,74226.0,8.65,-26.13,-26.29,0,*73
1496077515.37,48221,24.63,74224.0,8.63,-26.55,-26.77,0,*7D
1496077516.62,48222,24.63,74226.8,8.63,-26.61,-26.77,0,*79
1496077517.9,48223,24.63,74230.8,8.63,-26.29,-26.55,0,*74
1496077519.15,48224,24.63,74226.0,8.59,-26.33,-26.45,0,*70
1496077520.42,48225,24.63,74226.0,8.59,-26.33,-26.39,0,*7A
1496077521.7,48226,24.63,74224.8,8.59,-26.17,-26.33,0,*75
1496077522.9,48227,24.63,74228.3,8.57,-26.07,-26.23,0,*7A
1496077524.18,48228,24.63,74224.8,8.59,-26.13,-26.29,0,*74
1496077525.41,48229,24.63,74224.0,8.57,-26.29,-26.39,0,*73
1496077526.61,48230,24.63,74224.3,8.57,-26.23,-26.39,0,*71
1496077527.81,48231,24.63,74226.3,8.57,-26.03,-26.23,0,*79
1496077529.05,48232,24.63,74226.5,8.57,-26.03,-26.17,0,*7D
1496077530.33,48233,24.63,74224.8,8.59,-25.97,-26.13,0,*78
1496077531.58,48234,24.63,74226.5,8.59,-25.91,-26.13,0,*79
1496077532.78,48235,24.63,74224.8,8.57,-26.23,-26.39,0,*74
1496077534.0,48236,24.63,74224.5,8.57,-26.39,-26.55,0,*76
1496077535.25,48237,24.63,74226.0,8.55,-25.91,-26.17,0,*72
1496077536.5,48238,24.63,74224.8,8.55,-26.03,-26.17,0,*75
1496077537.78,48239,24.63,74226.5,8.55,-25.71,-25.81,0,*7E
1496077539.04,48240,24.63,74226.0,8.55,-25.71,-25.87,0,*76
1496077540.27,48241,24.63,74224.3,8.57,-25.71,-25.87,0,*75
1496077541.55,48242,24.63,74224.8,8.55,-25.71,-25.81,0,*72
1496077542.83,48243,24.63,74226.5,8.55,-25.71,-25.71,0,*7C
1496077544.06,48244,24.63,74224.8,8.57,-25.71,-25.87,0,*70
1496077545.29,48245,24.63,74224.0,8.57,-25.71,-25.87,0,*71
1496077546.52,48246,24.63,74228.3,8.57,-25.71,-25.87,0,*72
1496077547.72,48247,24.63,74222.3,8.57,-25.87,-25.87,0,*7A
1496077548.94,48248,24.63,74224.8,8.57,-25.81,-25.87,0,*73
1496077550.14,48249,24.63,74226.5,8.57,-25.87,-25.87,0,*74
1496077551.35,48250,24.63,74222.3,8.57,-26.07,-26.39,0,*71
1496077552.55,48251,24.63,74222.3,8.53,-26.07,-26.23,0,*7F
1496077553.76,48252,24.63,74226.8,8.53,-25.91,-26.07,0,*76
1496077555.01,48253,24.63,74222.5,8.55,-25.81,-26.03,0,*74
1496077556.23,48254,24.63,74226.0,8.55,-26.23,-26.39,0,*71
1496077557.46,48255,24.63,74226.0,8.53,-26.07,-26.13,0,*78
1496077558.72,48256,24.63,74226.3,8.55,-25.81,-26.03,0,*71
1496077559.96,48257,24.63,74224.0,8.55,-25.81,-25.87,0,*7F
1496077561.22,48258,24.63,74224.0,8.53,-25.97,-26.13,0,*7F
1496077562.48,48259,24.63,74226.0,8.53,-25.97,-26.13,0,*7E
1496077563.74,48260,24.63,74220.8,8.53,-26.13,-26.29,0,*72
1496077564.97,48261,24.63,74222.0,8.53,-25.97,-26.07,0,*70
1496077566.2,48262,24.63,74224.3,8.53,-25.97,-26.07,0,*73
1496077567.41,48263,24.63,74222.8,8.53,-25.87,-25.91,0,*7F
1496077568.66,48264,24.63,74220.8,8.55,-25.81,-26.03,0,*70
1496077569.89,48265,24.63,74224.8,8.49,-26.03,-26.29,0,*7D
1496077571.12,48266,24.63,74226.3,8.51,-25.91,-26.07,0,*73
1496077572.4,48267,24.63,74220.8,8.51,-25.75,-25.75,0,*7E
1496077573.68,48268,24.63,74226.8,8.51,-25.75,-25.71,0,*75
1496077574.93,48269,24.63,74224.5,8.51,-25.75,-25.87,0,*7D
1496077576.21,48270,24.63,74222.5,8.51,-25.75,-25.75,0,*78
1496077577.43,48271,24.63,74224.0,8.51,-25.91,-26.07,0,*75
1496077578.66,48272,24.63,74222.3,8.51,-25.87,-26.07,0,*71
1496077579.88,48273,24.63,74222.3,8.51,-25.91,-26.07,0,*77
1496077581.16,48274,24.63,74224.0,8.51,-25.75,-25.75,0,*7C
1496077582.41,48275,24.63,74220.0,8.49,-25.81,-25.81,0,*74
1496077583.66,48276,24.63,74226.5,8.51,-25.75,-25.87,0,*73
1496077584.92,48277,24.63,74220.8,8.49,-25.81,-25.75,0,*7D
1496077586.14,48278,24.63,74226.0,8.51,-26.07,-26.23,0,*76
1496077587.39,48279,24.63,74220.3,8.51,-26.13,-26.23,0,*72
1496077588.61,48280,24.63,74226.3,8.51,-26.07,-26.23,0,*71
1496077589.84,48281,24.63,74224.0,8.49,-26.33,-26.49,0,*72
1496077591.09,48282,24.63,74226.3,8.49,-26.13,-26.17,0,*78
1496077592.34,48283,24.63,74222.8,8.51,-25.91,-26.13,0,*7D
1496077593.59,48284,24.63,74224.0,8.49,-25.97,-26.13,0,*75
1496077594.82,48285,24.63,74226.0,8.49,-25.97,-25.91,0,*7D
1496077596.07,48286,24.63,74222.8,8.47,-25.87,-25.81,0,*70
1496077597.31,48287,24.63,74224.5,8.49,-26.03,-26.17,0,*7C
1496077598.56,48288,24.63,74226.0,8.47,-26.17,-26.23,0,*7F
1496077599.79,48289,24.63,74220.5,8.47,-26.39,-26.49,0,*7E
1496077601.02,48290,24.63,74220.8,8.45,-26.33,-26.49,0,*7E
1496077602.27,48291,24.63,74222.8,8.47,-26.39,-26.55,0,*7A
1496077603.48,48292,24.63,74220.8,8.45,-26.49,-26.39,0,*76
1496077604.71,48293,24.63,74224.8,8.45,-26.39,-26.55,0,*7A
1496077605.94,48294,24.63,74222.8,8.45,-26.33,-26.49,0,*7A
1496077607.16,48295,24.63,74224.0,8.41,-26.45,-26.49,0,*7E
1496077608.41,48296,24.63,74224.0,8.41,-26.17,-26.07,0,*70
1496077609.69,48297,24.63,74222.8,8.41,-26.17,-26.13,0,*74
1496077610.98,48298,24.63,74226.5,8.41,-26.33,-26.33,0,*7F
1496077612.17,48299,24.63,74226.0,8.39,-26.45,-26.45,0,*71
1496077613.42,48300,24.63,74224.8,8.39,-26.29,-26.29,0,*70
1496077614.64,48301,24.63,74226.8,8.39,-26.13,-26.07,0,*74
1496077615.89,48302,24.63,74226.5,8.35,-25.97,-25.81,0,*79
1496077617.14,48303,24.63,74226.5,8.35,-26.17,-26.17,0,*7F
1496077618.37,48304,24.63,74222.8,8.35,-26.33,-26.49,0,*75
1496077619.62,48305,24.63,74226.3,8.35,-26.33,-26.55,0,*79
1496077620.86,48306,24.63,74226.5,8.33,-26.45,-26.55,0,*7D
1496077622.08,48307,24.63,74226.8,8.33,-26.45,-26.45,0,*7D
1496077623.32,48308,24.63,74226.8,8.33,-26.45,-26.55,0,*73
1496077624.55,48309,24.63,74220.8,8.33,-26.39,-26.39,0,*73
1496077625.77,48310,24.63,74224.3,8.35,-26.23,-26.17,0,*7A
1496077627.01,48311,24.63,74226.5,8.33,-26.23,-26.17,0,*7D
1496077628.23,48312,24.63,74226.0,8.33,-26.07,-26.07,0,*79
1496077629.43,48313,24.63,74224.0,8.31,-25.87,-25.87,0,*7A
1496077630.68,48314,24.63,74226.3,8.31,-25.75,-25.75,0,*7D
1496077631.93,48315,24.63,74222.5,8.33,-25.87,-25.75,0,*73
1496077633.18,48316,24.63,74224.0,8.31,-25.75,-25.75,0,*7F
1496077634.41,48317,24.63,74226.8,8.31,-25.87,-25.75,0,*73
1496077635.65,48318,24.63,74226.5,8.33,-26.03,-26.03,0,*73
1496077636.89,48319,24.63,74226.5,8.33,-26.29,-26.45,0,*78
1496077638.08,48320,24.63,74220.8,8.31,-26.23,-26.23,0,*7A
1496077639.3,48321,24.63,74226.0,8.29,-26.23,-26.23,0,*72
1496077640.49,48322,24.63,74224.8,8.31,-26.07,-26.07,0,*78
1496077641.74,48323,24.63,74224.8,8.29,-26.13,-26.07,0,*75
1496077642.94,48324,24.63,74224.5,8.31,-26.07,-26.07,0,*7E
1496077644.16,48325,24.63,74220.8,8.29,-26.23,-26.23,0,*76
1496077645.4,48326,24.63,74224.3,8.29,-26.23,-26.13,0,*76
1496077646.65,48327,24.63,74220.8,8.29,-26.13,-26.23,0,*77
1496077647.84,48328,24.63,74224.0,8.27,-26.23,-26.23,0,*75
1496077649.09,48329,24.63,74226.0,8.27,-26.13,-26.13,0,*74
1496077650.33,48330,24.63,74224.3,8.27,-26.13,-26.13,0,*7C
1496077651.55,48331,24.63,74224.5,8.27,-26.13,-26.07,0,*78
1496077652.77,48332,24.63,74224.0,8.27,-26.23,-26.13,0,*7D
1496077653.99,48333,24.63,74224.3,8.27,-26.13,-26.07,0,*7A
1496077655.27,48334,24.63,74226.5,8.25,-26.17,-26.17,0,*7A
1496077656.54,48335,24.63,74222.5,8.25,-26.17,-26.13,0,*7F
1496077657.73,48336,24.63,74224.3,8.27,-25.91,-25.91,0,*7A
1496077658.97,48337,24.63,74226.8,8.25,-26.03,-26.03,0,*79
1496077660.24,48338,24.63,74224.3,8.25,-26.13,-26.17,0,*72
1496077661.52,48339,24.63,74224.3,8.25,-26.17,-26.17,0,*77
1496077662.77,48340,24.63,74224.3,8.25,-25.87,-25.97,0,*78
1496077663.96,48341,24.63,74226.0,8.23,-25.87,-25.91,0,*79
1496077665.15,48342,24.63,74224.3,8.23,-25.91,-25.87,0,*7A
1496077666.41,48343,24.63,74226.0,8.23,-25.71,-25.75,0,*78
1496077667.66,48344,24.63,74226.8,8.23,-25.55,-25.55,0,*7B
1496077668.86,48345,24.63,74224.0,8.23,-25.61,-25.61,0,*7A
1496077670.14,48346,24.63,74226.0,8.21,-25.75,-25.75,0,*7B
1496077671.36,48347,24.63,74226.5,8.23,-25.39,-25.45,0,*73
1496077672.55,48348,24.63,74226.5,8.23,-25.23,-25.23,0,*77
1496077673.77,48349,24.63,74224.0,8.25,-25.23,-25.35,0,*77
1496077675.0,48350,24.63,74228.8,8.25,-25.49,-25.49,0,*78
1496077676.22,48351,24.63,74230.0,8.25,-25.23,-25.39,0,*72
1496077677.44,48352,24.63,74228.8,8.25,-25.35,-25.39,0,*76
1496077678.7,48353,24.63,74226.5,8.23,-25.71,-25.71,0,*7D
1496077679.98,48354,24.63,74226.3,8.25,-25.55,-25.55,0,*7C
1496077681.23,48355,24.63,74224.0,8.23,-25.71,-25.71,0,*7B
1496077682.45,48356,24.63,74224.0,8.27,-25.35,-25.45,0,*7B
1496077683.67,48357,24.63,74230.8,8.23,-25.75,-25.87,0,*74
1496077684.94,48358,24.63,74228.5,8.21,-25.45,-25.55,0,*75
1496077686.19,48359,24.63,74226.3,8.23,-25.55,-25.55,0,*77
1496077687.45,48360,24.63,74226.0,8.21,-25.39,-25.55,0,*75
1496077688.66,48361,24.63,74226.0,8.23,-25.39,-25.45,0,*77
1496077689.88,48362,24.63,74230.0,8.23,-25.29,-25.23,0,*75
1496077691.07,48363,24.63,74228.0,8.23,-25.23,-25.19,0,*77
1496077692.26,48364,24.63,74226.8,8.23,-25.23,-25.23,0,*79
1496077693.48,48365,24.63,74226.5,8.25,-25.23,-25.39,0,*75
1496077694.7,48366,24.63,74226.3,8.25,-25.35,-25.39,0,*71
1496077695.93,48367,24.63,74224.0,8.25,-25.39,-25.49,0,*7B
1496077697.15,48368,24.63,74228.5,8.25,-25.35,-25.49,0,*78
1496077698.38,48369,24.63,74226.8,8.25,-25.35,-25.49,0,*79
1496077699.63,48370,24.63,74224.3,8.25,-25.49,-25.55,0,*77
1496077700.86,48371,24.63,74228.3,8.23,-25.61,-25.71,0,*7C
1496077702.1,48372,24.63,74224.8,8.25,-25.81,-25.87,0,*7E
1496077703.36,48373,24.63,74224.8,8.23,-25.71,-25.71,0,*7F
1496077704.59,48374,24.63,74228.3,8.23,-25.55,-25.61,0,*7F